Bryce Canyon, UT

3:03 PM MDT on September 23, 2017 (GMT -0600)
Bryce Canyon

Weather History for KBCE - January, 2013

Change the Weather History Date:

Friday, January 25, 2013

  Actual Average Record
Temperature  
Mean Temperature 32 °F -  
Max Temperature 35 °F 37 °F 54 °F (1975)
Min Temperature 30 °F 11 °F -15 °F (2017)
Degree Days  
Heating Degree Days 32    
Moisture  
Dew Point 33 °F    
Average Humidity 99    
Maximum Humidity 100    
Minimum Humidity 92    
Precipitation  
Precipitation 0.00 in - - ()
Sea Level Pressure  
Sea Level Pressure 30.23 in    
Wind  
Wind Speed 2 mph (SSE)    
Max Wind Speed 15 mph    
Max Gust Speed -    
Visibility 4 miles    
Events Fog , Rain    
Averages and records for this station are not official NWS values.
T = Trace of Precipitation, MM = Missing Value Source: NWS Daily Summary

Daily Weather History Graph

Daily Weather History Graph

Search for Another Location

Airport or City:

Trip Planner

Search our weather history database for the weather conditions in past years. The results will help you decide how hot, cold, wet, or windy it might be!

Date:

Astronomy

Jan. 25, 2013 Rise Set
Actual Time 7:37 AM MST 5:44 PM MST
Civil Twilight 7:09 AM MST 6:12 PM MST
Nautical Twilight 6:37 AM MST 6:44 PM MST
Astronomical Twilight 6:06 AM MST 7:15 PM MST
Moon 4:45 PM MST (1/25) 6:19 AM MST (1/25)
Length of Visible Light 11h 03m
Length of Day
10h 07m
Waxing Gibbous, 98% of the Moon is Illuminated
Jan 25
Waxing Gibbous
Jan 26
Full
Feb 3
Last Quarter
Feb 10
New
Feb 17
First Quarter

Hourly Weather History & Observations

Time (MST) Temp. Windchill Dew Point Humidity Pressure Visibility Wind Dir Wind Speed Gust Speed Precip Events Conditions
12:34 AM 32.0 °F - 30.2 °F 93% 30.32 in 10.0 mi Calm Calm - N/A   Overcast
12:46 AM 32.0 °F - 30.2 °F 93% 30.31 in 10.0 mi Calm Calm - N/A   Overcast
12:53 AM 32.0 °F - 30.9 °F 96% 30.21 in 10.0 mi Calm Calm - N/A   Overcast
1:46 AM 32.0 °F - 30.2 °F 93% 30.30 in 10.0 mi Calm Calm - N/A   Overcast
1:53 AM 32.0 °F - 30.9 °F 96% 30.22 in 10.0 mi Calm Calm - N/A   Overcast
2:17 AM 32.0 °F - 32.0 °F 100% 30.29 in 1.8 mi Calm Calm - N/A   Overcast
2:53 AM 30.9 °F - 30.9 °F 100% 30.20 in 0.8 mi Calm Calm - N/A   Mist
3:06 AM 30.2 °F 26.7 °F 30.2 °F 100% 30.29 in 0.2 mi West 3.5 mph - N/A Fog Light Freezing Fog
3:36 AM 32.0 °F - 32.0 °F 100% 30.29 in 0.2 mi Calm Calm - N/A Fog Fog
3:53 AM 30.9 °F - 30.9 °F 100% 30.20 in 0.2 mi Calm Calm - N/A Fog Light Freezing Fog
4:00 AM 30.2 °F - 30.2 °F 100% 30.30 in 0.5 mi Calm Calm - N/A Fog Light Freezing Fog
4:19 AM 30.2 °F 26.7 °F 30.2 °F 100% 30.30 in 0.8 mi SSW 3.5 mph - N/A   Overcast
4:38 AM 30.2 °F 26.7 °F 30.2 °F 100% 30.29 in 2.0 mi South 3.5 mph - N/A   Overcast
4:46 AM 30.2 °F - 30.2 °F 100% 30.29 in 8.0 mi Calm Calm - N/A   Overcast
4:53 AM 30.9 °F - 30.9 °F 100% 30.22 in 9.0 mi Calm Calm - N/A   Overcast
5:33 AM 30.2 °F - 30.2 °F 100% 30.28 in 5.0 mi Calm Calm - 0.00 in   Overcast
5:48 AM 32.0 °F - 32.0 °F 100% 30.28 in 1.5 mi Calm Calm - 0.00 in   Overcast
5:53 AM 32.0 °F 28.7 °F 32.0 °F 100% 30.20 in 0.8 mi South 3.5 mph - 0.00 in   Mist
6:38 AM 32.0 °F 28.7 °F 32.0 °F 100% 30.29 in 1.8 mi South 3.5 mph - 0.00 in   Overcast
6:53 AM 32.0 °F - 32.0 °F 100% 30.20 in 2.5 mi Calm Calm - 0.00 in   Overcast
7:09 AM 32.0 °F - 32.0 °F 100% 30.29 in 4.0 mi Calm Calm - N/A   Overcast
7:38 AM 30.2 °F - 30.2 °F 100% 30.29 in 10.0 mi Calm Calm - N/A   Overcast
7:53 AM 30.9 °F 27.5 °F 30.9 °F 100% 30.22 in 10.0 mi West 3.5 mph - N/A   Overcast
8:46 AM 32.0 °F - 32.0 °F 100% 30.29 in 10.0 mi Calm Calm - N/A   Overcast
8:53 AM 32.0 °F - 32.0 °F 100% 30.21 in 10.0 mi Calm Calm - N/A   Overcast
9:53 AM 33.1 °F 28.7 °F 32.0 °F 96% 30.23 in 10.0 mi SSE 4.6 mph - N/A   Overcast
10:20 AM 33.8 °F 27.7 °F 33.8 °F 100% 30.31 in 1.5 mi SE 6.9 mph - N/A   Overcast
10:26 AM 32.0 °F 25.6 °F 32.0 °F 100% 30.31 in 0.2 mi SSE 6.9 mph - N/A Fog Fog
10:36 AM 32.0 °F 25.6 °F 32.0 °F 100% 30.31 in 0.2 mi SSE 6.9 mph - N/A Fog Fog
10:45 AM 32.0 °F 27.5 °F 32.0 °F 100% 30.31 in 0.2 mi SE 4.6 mph - N/A Fog Fog
10:53 AM 33.1 °F 30.0 °F 33.1 °F 100% 30.22 in 0.2 mi SE 3.5 mph - N/A Fog Fog
11:03 AM 33.8 °F 29.6 °F 33.8 °F 100% 30.31 in 0.5 mi SE 4.6 mph - N/A Fog Fog
11:09 AM 33.8 °F 28.6 °F 33.8 °F 100% 30.31 in 2.0 mi SE 5.8 mph - N/A   Overcast
11:12 AM 33.8 °F 29.6 °F 33.8 °F 100% 30.31 in 6.0 mi SE 4.6 mph - N/A   Overcast
11:44 AM 35.6 °F 29.9 °F 33.8 °F 93% 30.30 in 10.0 mi SE 6.9 mph - N/A   Scattered Clouds
11:53 AM 35.1 °F 28.6 °F 33.1 °F 92% 30.20 in 10.0 mi SSE 8.1 mph - N/A   Scattered Clouds
12:04 PM 35.6 °F 28.0 °F 33.8 °F 93% 30.29 in 10.0 mi SE 10.4 mph - N/A   Mostly Cloudy
12:16 PM 33.8 °F 25.3 °F 33.8 °F 100% 30.28 in 10.0 mi SE 11.5 mph - N/A   Overcast
12:53 PM 34.0 °F 24.2 °F 33.1 °F 96% 30.17 in 10.0 mi SE 15.0 mph - N/A   Overcast
1:20 PM 33.8 °F 25.3 °F 33.8 °F 100% 30.24 in 4.0 mi SE 11.5 mph - N/A   Overcast
1:53 PM 34.0 °F 27.2 °F 33.1 °F 96% 30.14 in 10.0 mi SSE 8.1 mph - N/A   Overcast
2:53 PM 34.0 °F 25.5 °F 33.1 °F 96% 30.14 in 7.0 mi SE 11.5 mph - N/A   Overcast
3:53 PM 34.0 °F 31.0 °F 33.1 °F 96% 30.12 in 4.0 mi ESE 3.5 mph - N/A   Overcast
4:53 PM 34.0 °F 28.8 °F 33.1 °F 96% 30.12 in 9.0 mi SSE 5.8 mph - N/A   Overcast
5:04 PM 33.8 °F 27.7 °F 33.8 °F 100% 30.22 in 10.0 mi SE 6.9 mph - N/A   Overcast
5:53 PM 34.0 °F 31.0 °F 33.1 °F 96% 30.12 in 10.0 mi SSE 3.5 mph - N/A   Overcast
6:04 PM 33.8 °F 29.6 °F 33.8 °F 100% 30.22 in 10.0 mi SSE 4.6 mph - N/A   Overcast
6:50 PM 33.8 °F 30.8 °F 33.8 °F 100% 30.22 in 1.5 mi ESE 3.5 mph - N/A   Overcast
6:53 PM 33.1 °F - 33.1 °F 100% 30.13 in 1.0 mi Calm Calm - N/A   Overcast
7:00 PM 33.8 °F - 33.8 °F 100% 30.22 in 0.5 mi Calm Calm - N/A Fog Fog
7:14 PM 33.8 °F - 33.8 °F 100% 30.22 in 0.2 mi Calm Calm - N/A Fog Fog
7:41 PM 33.8 °F - 33.8 °F 100% 30.22 in 0.2 mi Calm Calm - N/A Fog Fog
7:53 PM 33.1 °F - 33.1 °F 100% 30.14 in 0.2 mi Calm Calm - N/A Fog Fog
8:38 PM 33.8 °F - 33.8 °F 100% 30.22 in 0.2 mi Calm Calm - N/A Fog Fog
8:53 PM 33.1 °F - 33.1 °F 100% 30.12 in 0.2 mi Calm Calm - N/A Fog Fog
9:02 PM 33.8 °F - 33.8 °F 100% 30.21 in 1.0 mi Calm Calm - N/A   Overcast
9:07 PM 33.8 °F - 33.8 °F 100% 30.21 in 3.0 mi Calm Calm - N/A   Overcast
9:09 PM 33.8 °F - 33.8 °F 100% 30.21 in 5.0 mi Calm Calm - N/A   Overcast
9:12 PM 33.8 °F - 33.8 °F 100% 30.21 in 1.2 mi Calm Calm - N/A   Overcast
9:16 PM 33.8 °F - 33.8 °F 100% 30.21 in 0.5 mi Calm Calm - N/A Fog Fog
9:31 PM 33.8 °F - 33.8 °F 100% 30.21 in 1.0 mi Calm Calm - N/A   Overcast
9:41 PM 33.8 °F 30.8 °F 33.8 °F 100% 30.21 in 0.5 mi SSE 3.5 mph - N/A Fog Fog
9:50 PM 33.8 °F 30.8 °F 33.8 °F 100% 30.21 in 0.2 mi SSE 3.5 mph - N/A Fog Fog
9:53 PM 33.1 °F 30.0 °F 33.1 °F 100% 30.12 in 0.2 mi SE 3.5 mph - N/A Fog Fog
10:00 PM 33.8 °F - 33.8 °F 100% 30.21 in 0.5 mi Calm Calm - N/A Fog Fog
10:08 PM 33.8 °F - 33.8 °F 100% 30.21 in 0.5 mi Calm Calm - N/A Fog Fog
10:24 PM 33.8 °F - 33.8 °F 100% 30.21 in 1.2 mi Calm Calm - N/A   Overcast
10:37 PM 33.8 °F - 33.8 °F 100% 30.20 in 0.5 mi Calm Calm - N/A Fog Fog
10:44 PM 33.8 °F - 33.8 °F 100% 30.21 in 0.2 mi Calm Calm - N/A Fog Fog
10:53 PM 33.1 °F - 33.1 °F 100% 30.11 in 0.2 mi Calm Calm - N/A Fog Fog
11:09 PM 33.8 °F 30.8 °F 33.8 °F 100% 30.20 in 0.2 mi SE 3.5 mph - N/A Fog Fog
11:53 PM 33.1 °F - 33.1 °F 100% 30.09 in 0.2 mi Calm Calm - 0.00 in Fog , Rain Light Rain